EW9831 Weather Reports


time (UTC)temp
C
wind
direction
speed
KPH
gust
KPH
rain 1hr
cm
rain 24hr
cm
rain mn
cm
humidity
%
barometer
mb
20180219042056 10 90 8.0 8.0 0.00 0.00 0.00 78 1020.7
20180219041556 10 30 3.2 3.2 0.00 0.00 0.00 79 1020.9
20180219041057 10 30 3.2 3.2 0.00 0.00 0.00 79 1020.9
20180219040557 10 30 3.2 3.2 0.00 0.00 0.00 79 1020.9
20180219035556 10 30 3.2 3.2 0.00 0.00 0.00 79 1020.9
20180219035056 10 30 3.2 4.8 0.00 0.00 0.00 79 1020.9
20180219034557 10 320 4.8 4.8 0.00 0.00 0.00 79 1020.9
20180219033056 10 320 4.8 4.8 0.00 0.00 0.00 79 1020.9
20180219032056 10 320 4.8 4.8 0.00 0.00 0.00 78 1020.9
20180219025556 10 30 0.0 0.0 0.00 0.00 0.00 77 1021.0
20180219025057 10 30 0.0 3.2 0.00 0.00 0.00 77 1021.0
20180219024556 10 30 1.6 3.2 0.00 0.00 0.00 77 1021.0
20180219023057 10 30 1.6 3.2 0.00 0.00 0.00 76 1021.1
20180219022556 10 30 1.6 3.2 0.00 0.00 0.00 76 1021.1
20180219022057 10 30 1.6 4.8 0.00 0.00 0.00 76 1021.1
20180219014557 10 80 1.6 3.2 0.00 0.00 0.00 75 1021.4
20180219013556 10 80 1.6 3.2 0.00 0.00 0.00 75 1021.4
20180219012556 10 80 1.6 3.2 0.00 0.00 0.00 74 1021.5
20180219011556 11 80 8.0 8.0 0.00 0.00 0.00 72 1021.6
20180219011056 11 80 8.0 8.0 0.00 0.00 0.00 72 1021.6
20180219005057 11 80 8.0 8.0 0.00 0.00 0.00 72 1021.6
20180219004056 11 0 0.0 0.0 0.00 0.00 0.00 72 1021.6
20180219003556 11 0 0.0 0.0 0.00 0.00 0.00 70 1021.8
20180219002056 11 0 0.0 4.8 0.00 0.00 0.00 70 1021.9
20180219001557 11 0 4.8 4.8 0.00 0.00 0.00 70 1022.2
20180219000557 11 0 4.8 4.8 0.00 0.00 0.00 70 1022.2
20180219000057 11 0 4.8 4.8 0.00 0.00 0.00 70 1022.2
20180218235057 11 0 4.8 4.8 0.00 0.00 0.00 70 1022.2
20180218233557 11 40 0.0 0.0 0.00 0.00 0.00 70 1022.2
20180218233056 11 40 0.0 0.0 0.00 0.00 0.00 70 1022.2
20180218232557 11 40 0.0 0.0 0.00 0.00 0.00 71 1022.2
20180218232056 11 40 0.0 8.0 0.00 0.00 0.00 71 1022.2
20180218230057 11 40 8.0 8.0 0.00 0.00 0.00 71 1022.2
20180218225056 11 40 8.0 8.0 0.00 0.00 0.00 71 1022.2
20180218224557 11 20 4.8 4.8 0.00 0.00 0.00 71 1022.2
20180218223057 11 20 4.8 4.8 0.00 0.00 0.00 70 1022.2
20180218221557 11 40 8.0 8.0 0.00 0.00 0.00 70 1022.4
20180218221056 11 40 8.0 8.0 0.00 0.00 0.00 70 1022.4
20180218220557 11 40 8.0 8.0 0.00 0.00 0.00 70 1022.4
20180218213557 11 0 1.6 3.2 0.00 0.00 0.00 69 1022.4
20180218213057 11 0 1.6 3.2 0.00 0.00 0.00 69 1022.4
20180218212556 11 0 1.6 3.2 0.00 0.00 0.00 69 1022.4
20180218211557 11 0 4.8 4.8 0.00 0.00 0.00 67 1022.4
20180218211057 11 0 4.8 4.8 0.00 0.00 0.00 67 1022.4
20180218210057 11 0 4.8 4.8 0.00 0.00 0.00 67 1022.4
20180218205557 11 0 4.8 4.8 0.00 0.00 0.00 67 1022.4
20180218205056 11 0 4.8 4.8 0.00 0.00 0.00 67 1022.4
20180218204057 11 10 1.6 3.2 0.00 0.00 0.00 67 1022.4
20180218203557 11 10 1.6 3.2 0.00 0.00 0.00 66 1022.3
20180218203057 11 10 1.6 3.2 0.00 0.00 0.00 66 1022.3
20180218202557 11 10 1.6 3.2 0.00 0.00 0.00 65 1022.3
20180218202057 11 10 1.6 3.2 0.00 0.00 0.00 65 1022.3
20180218201557 12 10 1.6 3.2 0.00 0.00 0.00 63 1022.4
20180218201056 12 10 1.6 3.2 0.00 0.00 0.00 63 1022.4
20180218200557 12 10 1.6 3.2 0.00 0.00 0.00 63 1022.4
20180218200057 12 10 1.6 3.2 0.00 0.00 0.00 63 1022.4
20180218195557 12 10 1.6 3.2 0.00 0.00 0.00 63 1022.4
20180218195056 12 10 1.6 3.2 0.00 0.00 0.00 63 1022.4
20180218194056 12 10 0.0 0.0 0.00 0.00 0.00 63 1022.4
20180218193557 12 10 0.0 0.0 0.00 0.00 0.00 62 1022.5
20180218192057 12 10 0.0 0.0 0.00 0.00 0.00 62 1022.4
20180218191057 13 10 0.0 0.0 0.00 0.00 0.00 59 1022.4
20180218184057 13 10 9.7 9.7 0.00 0.00 0.00 59 1022.4
20180218183557 13 10 9.7 9.7 0.00 0.00 0.00 58 1022.5
20180218183057 13 10 9.7 9.7 0.00 0.00 0.00 58 1022.5
20180218182057 13 10 9.7 16.1 0.00 0.00 0.00 57 1022.5
20180218181056 14 350 16.1 16.1 0.00 0.00 0.00 54 1022.5
20180218180557 14 350 16.1 16.1 0.00 0.00 0.00 54 1022.5
20180218175557 14 350 16.1 16.1 0.00 0.00 0.00 54 1022.5
20180218175057 14 350 16.1 16.1 0.00 0.00 0.00 54 1022.5
20180218173057 15 350 16.1 16.1 0.00 0.00 0.00 54 1022.4
20180218172057 15 350 16.1 20.9 0.00 0.00 0.00 53 1022.4
20180218171557 15 350 20.9 20.9 0.00 0.00 0.00 53 1022.4
20180218171057 15 350 20.9 20.9 0.00 0.00 0.00 53 1022.4
20180218170558 15 350 20.9 20.9 0.00 0.00 0.00 53 1022.4
20180218165557 15 350 20.9 20.9 0.00 0.00 0.00 53 1022.4
20180218165057 15 350 20.9 22.5 0.00 0.00 0.00 53 1022.4
20180218164057 15 350 22.5 22.5 0.00 0.00 0.00 53 1022.4
20180218162557 15 350 22.5 22.5 0.00 0.00 0.00 53 1022.4
20180218162057 15 350 22.5 22.5 0.00 0.00 0.00 53 1022.4
20180218161557 16 340 19.3 19.3 0.00 0.00 0.00 51 1022.5
20180218161057 16 340 19.3 19.3 0.00 0.00 0.00 51 1022.5
20180218160058 16 340 19.3 19.3 0.00 0.00 0.00 51 1022.5
20180218155057 16 340 19.3 19.3 0.00 0.00 0.00 51 1022.5
20180218154620 16 340 14.5 14.5 0.00 0.00 0.00 51 1022.5
20180218154057 16 340 14.5 14.5 0.00 0.00 0.00 51 1022.5
20180218153557 16 340 14.5 14.5 0.00 0.00 0.00 51 1022.5
20180218153057 16 340 14.5 14.5 0.00 0.00 0.00 51 1022.6
20180218152557 16 340 14.5 14.5 0.00 0.00 0.00 51 1022.6
20180218152057 16 340 14.5 16.1 0.00 0.00 0.00 49 1022.6
20180218151057 15 320 16.1 16.1 0.00 0.00 0.00 44 1022.9
20180218150557 15 320 16.1 16.1 0.00 0.00 0.00 44 1022.9
20180218150058 15 320 16.1 16.1 0.00 0.00 0.00 44 1022.9
20180218145057 15 320 16.1 16.1 0.00 0.00 0.00 44 1022.9
20180218143558 15 300 12.9 12.9 0.00 0.00 0.00 44 1023.1
20180218142557 15 300 12.9 12.9 0.00 0.00 0.00 43 1023.2
20180218142057 15 300 12.9 12.9 0.00 0.00 0.00 43 1023.3
20180218141059 15 300 11.3 11.3 0.00 0.00 0.00 42 1023.8
20180218140557 15 300 11.3 11.3 0.00 0.00 0.00 42 1023.8
20180218135057 15 300 11.3 11.3 0.00 0.00 0.00 42 1023.8
20180218134601 15 0 8.0 8.0 0.00 0.00 0.00 42 1023.8
20180218134057 15 0 8.0 8.0 0.00 0.00 0.00 41 1023.9
20180218133557 15 0 8.0 8.0 0.00 0.00 0.00 41 1023.9
20180218133057 15 0 8.0 8.0 0.00 0.00 0.00 41 1024.0
20180218130557 15 130 1.6 3.2 0.00 0.00 0.00 39 1024.7
20180218130057 15 130 1.6 3.2 0.00 0.00 0.00 39 1024.7
20180218124058 15 130 9.7 9.7 0.00 0.00 0.00 40 1024.8
20180218123057 14 130 9.7 9.7 0.00 0.00 0.00 40 1024.8
20180218122557 14 130 9.7 9.7 0.00 0.00 0.00 40 1024.8
20180218121057 13 90 11.3 11.3 0.00 0.00 0.00 44 1025.3
20180218115557 13 90 11.3 11.3 0.00 0.00 0.00 44 1025.3
20180218115057 13 90 11.3 11.3 0.00 0.00 0.00 44 1025.3
20180218114057 13 100 11.3 11.3 0.00 0.00 0.00 43 1025.4
20180218113557 13 100 11.3 11.3 0.00 0.00 0.00 43 1025.4
20180218112557 13 100 11.3 11.3 0.00 0.00 0.00 44 1025.4
20180218112057 13 100 11.3 12.9 0.00 0.00 0.00 44 1025.5
20180218111558 12 80 12.9 12.9 0.00 0.00 0.00 47 1025.6
20180218105558 12 80 12.9 12.9 0.00 0.00 0.00 47 1025.6
20180218104057 12 50 9.7 9.7 0.00 0.00 0.00 50 1025.7
20180218103558 12 50 9.7 9.7 0.00 0.00 0.00 50 1025.7
20180218102558 12 50 9.7 9.7 0.00 0.00 0.00 50 1025.8
20180218101557 11 40 8.0 8.0 0.00 0.00 0.00 54 1025.9
20180218101057 11 40 8.0 8.0 0.00 0.00 0.00 54 1025.9
20180218100557 11 40 8.0 8.0 0.00 0.00 0.00 54 1025.9
20180218095557 11 40 8.0 8.0 0.00 0.00 0.00 54 1025.9
20180218094558 11 60 11.3 11.3 0.00 0.00 0.00 54 1025.9
20180218093558 11 60 11.3 11.3 0.00 0.00 0.00 56 1025.9
20180218092558 10 60 11.3 11.3 0.00 0.00 0.00 55 1025.9
20180218092057 10 60 11.3 11.3 0.00 0.00 0.00 58 1025.8
20180218091058 8 70 11.3 11.3 0.00 0.00 0.00 61 1025.9
20180218090058 8 70 11.3 11.3 0.00 0.00 0.00 61 1025.9
20180218085557 8 70 11.3 11.3 0.00 0.00 0.00 61 1025.9
20180218084058 8 80 12.9 12.9 0.00 0.00 0.00 61 1025.9
20180218082558 8 80 12.9 12.9 0.00 0.00 0.00 64 1025.8
20180218082058 7 80 12.9 12.9 0.00 0.00 0.00 64 1025.8
20180218081058 7 80 9.7 9.7 0.00 0.00 0.00 63 1025.6
20180218080057 7 80 9.7 9.7 0.00 0.00 0.00 63 1025.6
20180218075058 7 80 9.7 9.7 0.00 0.00 0.00 63 1025.6
20180218074057 7 20 1.6 3.2 0.00 0.00 0.00 63 1025.6
20180218073558 7 20 1.6 3.2 0.00 0.00 0.00 63 1025.4
20180218072557 7 20 1.6 3.2 0.00 0.00 0.00 63 1025.4
20180218072058 7 20 1.6 8.0 0.00 0.00 0.00 63 1025.4
20180218071557 8 20 8.0 8.0 0.00 0.00 0.00 61 1025.3
20180218070058 8 20 8.0 8.0 0.00 0.00 0.00 61 1025.3
20180218065557 8 20 8.0 8.0 0.00 0.00 0.00 61 1025.3
20180218065058 8 20 8.0 8.0 0.00 0.00 0.00 61 1025.3
20180218064558 8 30 1.6 3.2 0.00 0.00 0.00 61 1025.1
20180218064057 8 30 1.6 3.2 0.00 0.00 0.00 61 1025.1
20180218063558 8 30 1.6 3.2 0.00 0.00 0.00 61 1025.1
20180218063058 8 30 1.6 3.2 0.00 0.00 0.00 61 1025.1
20180218062557 8 30 1.6 3.2 0.00 0.00 0.00 61 1025.1
20180218060058 8 30 4.8 4.8 0.00 0.00 0.00 61 1025.1
20180218055558 8 30 4.8 4.8 0.00 0.00 0.00 61 1025.1
20180218055058 8 30 4.8 4.8 0.00 0.00 0.00 61 1025.1
20180218054558 8 80 1.6 3.2 0.00 0.00 0.00 62 1025.2
20180218053058 8 80 1.6 3.2 0.00 0.00 0.00 62 1025.0
20180218052558 8 80 1.6 3.2 0.00 0.00 0.00 62 1025.0
20180218052058 8 80 1.6 4.8 0.00 0.00 0.00 62 1025.0
20180218051558 8 80 4.8 4.8 0.00 0.00 0.00 64 1024.9
20180218051058 8 80 4.8 4.8 0.00 0.00 0.00 64 1024.9
20180218050058 8 80 4.8 4.8 0.00 0.00 0.00 64 1024.9
20180218045557 8 80 4.8 4.8 0.00 0.00 0.00 64 1024.9
20180218042558 8 30 0.0 0.0 0.00 0.00 0.00 65 1024.8